This demonstration page uses our WeatherBlox Daily Observations layout. Learn more.

Left ArrowRight Arrow

40.92945, -100.16068

Hourly Observations for April 12, 2015

Temp ( °F °C ) Dew Point ( °F °C ) Humidity (%) Winds ( mph kmh ) Pressure ( in mb ) Visibility ( mi km ) Precip ( " mm )
12:15 am 00:15 Clear 56 13.4 48 8.7 73 73 SSE 16 26 29.77 1008 10 16 N/A
12:35 am 00:35 Clear 55 12.8 47 8.1 73 73 SSE 16 26 29.77 1008 10 16 N/A
12:55 am 00:55 Clear 54 12.2 46 7.8 75 75 SSE 12 19 29.77 1008 10 16 N/A
1:15 am 01:15 Clear 53 11.7 46 7.6 76 76 SE 8 13 29.77 1008 10 16 N/A
1:35 am 01:35 Clear 52 11.1 45 7.2 77 77 SSE 9 15 29.80 1009 10 16 N/A
1:55 am 01:55 Clear 51 10.5 45 7 79 79 SSE 10 17 29.80 1009 10 16 N/A
2:15 am 02:15 Clear 51 10.6 44 6.6 77 77 S 13 20 29.80 1009 10 16 N/A
2:35 am 02:35 Clear 51 10.5 44 6.5 76 76 S 13 20 29.74 1007 10 16 N/A
2:55 am 02:55 Clear 50 10.1 43 6.2 77 77 SSE 9 15 29.77 1008 10 16 N/A
3:15 am 03:15 Clear 50 10 43 6 76 76 SSE 8 13 29.77 1008 10 16 N/A
3:35 am 03:35 Clear 49 9.2 42 5.7 79 79 ESE 5 7 29.77 1008 10 16 N/A
3:55 am 03:55 Clear 47 8.6 42 5.5 81 81 SE 6 9 29.77 1008 10 16 N/A
4:15 am 04:15 Clear 48 9 42 5.5 79 79 SSE 9 15 29.77 1008 10 16 N/A
4:35 am 04:35 Clear 48 9.1 42 5.5 78 78 S 13 20 29.77 1008 10 16 N/A
4:55 am 04:55 Clear 48 9 42 5.6 79 79 S 12 19 29.77 1008 10 16 N/A
5:15 am 05:15 Mostly Cloudy 49 9.6 43 6 78 78 S 8 13 29.74 1007 10 16 N/A
5:35 am 05:35 Mostly Cloudy 49 9.5 43 6 79 79 SSE 6 9 29.74 1007 10 16 N/A
5:55 am 05:55 Cloudy 49 9.7 44 6.5 81 81 E 5 7 29.74 1007 10 16 N/A
6:15 am 06:15 Cloudy 50 10.1 44 6.7 80 80 ESE 6 9 29.74 1007 10 16 N/A
6:35 am 06:35 Cloudy 51 10.4 44 6.8 79 79 SE 6 9 29.74 1007 10 16 N/A
6:55 am 06:55 Cloudy 52 10.9 45 7.2 78 78 SSE 6 9 29.71 1006 10 16 N/A
7:15 am 07:15 Cloudy 52 11.3 46 7.7 79 79 S 7 11 29.71 1006 10 16 N/A
7:35 am 07:35 Cloudy 53 11.7 47 8.3 80 80 S 7 11 29.74 1007 10 16 N/A
7:55 am 07:55 Cloudy 54 12 48 9 82 82 S 5 7 29.71 1006 10 16 N/A
8:15 am 08:15 Cloudy 55 12.6 49 9.7 83 83 S 6 9 29.74 1007 10 16 N/A
8:35 am 08:35 Cloudy 57 13.7 52 11.1 84 84 SW 7 11 29.74 1007 10 16 N/A
8:55 am 08:55 Cloudy 58 14.3 53 11.7 85 85 S 12 19 29.68 1005 10 16 N/A
9:15 am 09:15 Cloudy 59 15 54 12 82 82 S 20 31 29.68 1005 10 16 N/A
9:35 am 09:35 Mostly Cloudy 60 15.8 54 12.3 80 80 S 20 31 29.68 1005 10 16 N/A
9:55 am 09:55 Mostly Cloudy 62 16.4 55 12.5 78 78 SSW 16 26 29.68 1005 10 16 N/A
10:15 am 10:15 Partly Cloudy 62 16.9 54 12.4 75 75 SSW 17 28 29.68 1005 10 16 N/A
10:35 am 10:35 Partly Cloudy 64 17.7 55 12.5 72 72 SSW 20 31 29.65 1004 10 16 N/A
10:55 am 10:55 Mostly Cloudy 65 18.2 54 12.2 68 68 SSW 18 30 29.65 1004 10 16 N/A
11:15 am 11:15 Mostly Cloudy 65 18.5 54 12.2 67 67 SW 21 33 29.65 1004 10 16 N/A
11:35 am 11:35 Mostly Cloudy 66 19 54 12.4 66 66 SW 13 20 29.65 1004 10 16 N/A
11:55 am 11:55 Cloudy 66 19.1 53 11.9 63 63 SSW 16 26 29.65 1004 10 16 N/A
12:15 pm 12:15 Cloudy 69 20.5 53 11.7 57 57 SW 13 20 29.62 1003 10 16 N/A
12:35 pm 12:35 Cloudy 67 19.4 53 11.7 61 61 WSW 10 17 29.65 1004 10 16 N/A
12:55 pm 12:55 Cloudy 69 20.5 53 11.9 58 58 WSW 13 20 29.62 1003 10 16 N/A
1:15 pm 13:15 Mostly Cloudy 69 20.4 53 11.4 56 56 W 8 13 29.65 1004 10 16 N/A
1:35 pm 13:35 Cloudy 69 20.4 53 11.4 56 56 WSW 8 13 29.65 1004 10 16 N/A
1:55 pm 13:55 Partly Cloudy 70 20.9 52 11.1 54 54 WSW 5 7 29.62 1003 10 16 N/A
2:15 pm 14:15 Sunny 72 22.1 53 11.7 52 52 W 5 7 29.59 1002 10 16 N/A
2:35 pm 14:35 Partly Cloudy 71 21.9 53 11.7 52 52 N N/A 29.59 1002 10 16 N/A
2:55 pm 14:55 Mostly Cloudy 71 21.7 51 10.6 49 49 N N/A 29.59 1002 10 16 N/A
3:15 pm 15:15 Partly Cloudy 72 22 52 11.3 51 51 N N/A 29.59 1002 10 16 N/A
3:35 pm 15:35 Sunny 73 23 53 11.4 48 48 SW 6 9 29.59 1002 10 16 N/A
3:55 pm 15:55 Partly Cloudy 74 23.5 51 10.4 44 44 NW 3 6 29.56 1001 10 16 N/A
4:15 pm 16:15 Partly Cloudy 76 24.3 46 7.9 35 35 NNW 7 11 29.56 1001 10 16 N/A
4:35 pm 16:35 Sunny 76 24.6 46 7.5 34 34 NNW 10 17 29.56 1001 10 16 N/A
4:55 pm 16:55 Partly Cloudy 75 23.9 45 7 34 34 NW 13 20 29.56 1001 10 16 N/A
5:15 pm 17:15 Mostly Cloudy 74 23.3 39 4 29 29 N 23 37 29.62 1003 10 16 N/A
5:35 pm 17:35 Partly Cloudy 73 22.8 36 2.1 26 26 N 29 46 29.65 1004 10 16 N/A
5:55 pm 17:55 Sunny 72 22.4 35 1.5 25 25 N 29 46 29.65 1004 10 16 N/A
6:15 pm 18:15 Sunny 71 21.6 34 1.3 26 26 N 28 44 29.68 1005 10 16 N/A
6:35 pm 18:35 Sunny 69 20.6 33 0.8 27 27 N 24 39 29.71 1006 10 16 N/A
6:55 pm 18:55 Mostly Cloudy 68 19.8 33 0.8 28 28 N 22 35 29.74 1007 10 16 N/A
7:15 pm 19:15 Mostly Cloudy 68 19.8 33 0.7 28 28 N 28 44 29.77 1008 10 16 N/A
7:35 pm 19:35 Partly Cloudy 65 18.1 33 0.7 31 31 NNW 25 41 29.83 1010 10 16 N/A
7:55 pm 19:55 Partly Cloudy 64 17.5 33 0.8 33 33 NNW 22 35 29.85 1011 10 16 N/A
8:15 pm 20:15 Partly Cloudy 61 16.3 33 0.3 34 34 N 20 31 29.85 1011 10 16 N/A
8:35 pm 20:35 Clear 59 15 33 0.6 38 38 N 14 22 29.91 1013 10 16 N/A
8:55 pm 20:55 Clear 58 14.6 33 0.7 39 39 N 10 17 29.91 1013 10 16 N/A
9:15 pm 21:15 Clear 56 13.5 34 1.3 44 44 N 8 13 29.91 1013 10 16 N/A
9:35 pm 21:35 Clear 56 13.4 35 1.5 45 45 N 12 19 29.94 1014 10 16 N/A
9:55 pm 21:55 Clear 55 12.7 35 1.4 46 46 N 14 22 29.94 1014 10 16 N/A
10:15 pm 22:15 Clear 55 12.5 32 0.2 43 43 N 17 28 29.94 1014 10 16 N/A
10:35 pm 22:35 Clear 51 10.6 33 0.4 50 50 N 12 19 29.97 1015 10 16 N/A
10:55 pm 22:55 Clear 49 9.5 33 0.4 53 53 N 10 17 30.00 1016 10 16 N/A
11:15 pm 23:15 Clear 47 8.5 32 0.1 56 56 N 8 13 30.03 1017 10 16 N/A
11:35 pm 23:35 Clear 45 7.1 32 undefined 61 61 N 6 9 30.03 1017 10 16 N/A
11:55 pm 23:55 Clear 44 6.9 31 -0.3 60 60 NNW 5 7 30.09 1019 10 16 N/A

Powered by AerisWeather